Regional Weather Roundup
Issued by NWS Newport/Morehead, NC

Current Version | Previous Version | Text Only | Print | Product List | Glossary Off
Versions: 1 2 3 4 5 6 7 8 9 10 11 12 13 14 15 16 17 18 19 20 21 22 23 24 25 26 27 28 29 30 31 32 33 34 35 36 37 38 39 40 41 42 43 44 45 46 47 48 49 50
000 ASUS42 KMHX 301110 RWRMHX WEATHER ROUNDUP FOR EASTERN NORTH CAROLINA NATIONAL WEATHER SERVICE NEWPORT/MOREHEAD CITY NC 700 AM EDT THU OCT 30 2014 NOTE: "FAIR" INDICATES FEW OR NO CLOUDS BELOW 12,000 FEET WITH NO SIGNIFICANT WEATHER AND/OR OBSTRUCTIONS TO VISIBILITY NCZ015>017-031-032-045>047-102-103-301200- NORTH COAST CITY SKY/WX TMP DP RH WIND PRES REMARKS EDENTON MOCLDY 53 51 95 N6 30.01R ELIZABETH CITY MOCLDY 56 52 86 N8 29.99F KITTY HAWK PTSUNNY 58 51 77 NE8G16 29.96S MANTEO MOCLDY 58 52 80 N14G20 29.97S $$ NCZ045>047-081-094-103-104-301200- CENTRAL COAST CITY SKY/WX TMP DP RH WIND PRES REMARKS FRISCO CLOUDY 60 57 89 NE13G22 29.95S SWANQUARTER N/A 55 N/A N/A NE6G12 29.94S $$ NCZ095-097-098-100-101-301200- SOUTHERN COAST CITY SKY/WX TMP DP RH WIND PRES REMARKS BEAUFORT LGT RAIN 57 56 96 N12 29.97R CEDAR ISLAND N/A 59 N/A N/A NE12G23 30.00S JACKSONVILLE CLOUDY 58 56 93 N13 29.98R PINEY ISLAND CLOUDY 61 55 81 N15 29.96S WILMINGTON LGT RAIN 59 57 93 NE6 29.97R $$ NCZ011>013-027>030-043-044-078>080-089-090>093-098-301200- COASTAL PLAIN CITY SKY/WX TMP DP RH WIND PRES REMARKS AHOSKIE NOT AVBL CLINTON MOCLDY 57 54 91 N5 30.01R ELIZABETHTOWN CLOUDY 56 50 82 CALM 29.99R GOLDSBORO MOCLDY 55 55 97 N8 29.99R GREENVILLE PTCLDY 52 52 100 N5 30.03R HAVELOCK CLOUDY 57 53 86 N12 29.98S KENANSVILLE CLOUDY 57 55 92 CALM 30.00R KINSTON MOCLDY 55 50 82 N6 30.01R NEW BERN CLOUDY 58 53 84 NE10 29.99R RICHLANDS CLOUDY 57 54 88 N13 29.99R ROCKY MOUNT PTCLDY 52 51 97 CALM 30.02S WASHINGTON CLOUDY 53 51 91 CALM 30.01R WHITEVILLE CLOUDY 57 52 82 CALM 29.99R $$ AMZ130-135-150-152-154-156-158-170-250-252-270-ANZ085-086-088-633-658-670-301200- MARINE OBSERVATIONS STATION/POSITION TIME TEMP WIND PRES WAVE SWELL AIR SEA DIR/SP/G HT/PER HT/PER (UTC) (F) (DEG/KT/KT) (MB) (FT/S) (FT/S) CHESAPEAKE LIGHT 1000 60 30/ 16/ 18 1015.6 64 E VA BEACH 1100 59 67 30/ 19/ 23 1014.1 5/ 6 DUCK 1100 60 67 30/ 21/ 24 1014.2 2 E DUCK NOT AVBL 10 NE DUCK 1100 67 N/A 5/ 6 OREGON INLET 1100 59 68 10/ 14/ 20 1014.3 13E OREGON INLT 1100 70 N/A 6/ 6 HATTERAS CG 1100 62 71 20/ 15/ 23 1014.3 DIAMOND BUOY 1100 65 10/ 19/ 23 1013.1 5/ 5 17 S OCRACOKE NOT AVBL CAPE LOOKOUT 1000 60 360/ 15/ 19 1014.1 BEAUFORT LAB 1100 58 70 10/ 12/ 14 1013.9 30 SE NEW RIVER 1100 65 74 30/ 17/ 21 1013.3 3/ 3 5 SE WRIGHTSVLE 1000 59 71 40/ 12/ 14 N/A 225 S CAPE HAT 1050 75 77 230/ 10/ 12 1014.6 2/10 2/10 41 SE CHARLESTON 1100 74 77 310/ 16/ 17 1012.9 3/ 4 2/ 8 $$

USA.gov is the U.S. government's official web portal to all federal, state and local government web resources and services.